Regional Weather Roundup
Issued by NWS Little Rock, AR

Home | Current Version | Previous Version | Text Only | Print | Product List | Glossary Off
Versions: 1 2 3 4 5 6 7 8 9 10 11 12 13 14 15 16 17 18 19 20 21 22 23 24 25 26 27 28 29 30 31 32 33 34 35 36 37 38 39 40 41 42 43 44 45 46 47 48 49 50

274
ASUS44 KLZK 171205
RWRLZK

WEATHER ROUNDUP FOR ARKANSAS
NATIONAL WEATHER SERVICE LITTLE ROCK AR
600 AM CST WED JAN 17 2018

NOTE: "FAIR" INDICATES FEW OR NO CLOUDS BELOW 12,000 FEET WITH NO
SIGNIFICANT WEATHER AND/OR OBSTRUCTIONS TO VISIBILITY.

ARZ001-003-010-029-171300-
NORTHWEST ARKANSAS

CITY           SKY/WX    TMP DP  RH WIND       PRES   REMARKS
FAYETTEVILLE   CLOUDY     0  -3  87 CALM      30.68S
6HR MIN TEMP:  -1; 6HR MAX TEMP:   2;

FORT SMITH     CLOUDY     6   1  80 W6        30.77R WCI  -4
6HR MIN TEMP:   6; 6HR MAX TEMP:  10;

HARRISON       CLOUDY     3  -2  79 W3        30.65R
6HR MIN TEMP:   2; 6HR MAX TEMP:   3;

BENTONVILLE    CLOUDY     1  -2  87 CALM      30.69R
6HR MIN TEMP:   0; 6HR MAX TEMP:   2;

ROGERS         CLEAR     -2  -5  87 CALM      30.67R
6HR MIN TEMP:  -2; 6HR MAX TEMP:   1;

SILOAM SPGS    CLOUDY     1  -2  87 CALM      30.69S
6HR MIN TEMP:   0; 6HR MAX TEMP:   4;

HIGHFILL       CLEAR      1  -3  83 CALM      30.67R
6HR MIN TEMP:   1; 6HR MAX TEMP:   3;

SPRINGDALE     CLEAR    N/A N/A N/A CALM      30.67
$$

ARZ004-005-016-171300-
NORTH CENTRAL ARKANSAS

CITY           SKY/WX    TMP DP  RH WIND       PRES   REMARKS
BATESVILLE     CLEAR      5   1  83 NW5       30.74S WCI  -4
6HR MIN TEMP:   5; 6HR MAX TEMP:   7;

FLIPPIN        CLOUDY     0  -4  83 CALM      30.73R
6HR MIN TEMP:  -1; 6HR MAX TEMP:   3;

MTN HOME       CLOUDY     1  -1  91 N3        30.68S
6HR MIN TEMP:  -1; 6HR MAX TEMP:   1;

$$

ARZ040-041-171300-
WEST CENTRAL ARKANSAS

CITY           SKY/WX    TMP DP  RH WIND       PRES   REMARKS
MENA           PTCLDY     7   3  85 CALM      30.68S
MOUNT IDA      CLOUDY     4   2  91 CALM      30.70R
6HR MIN TEMP:   4; 6HR MAX TEMP:  10;

$$

ARZ009-017-025-026-028-171300-
NORTHEAST ARKANSAS

CITY           SKY/WX    TMP DP  RH WIND       PRES   REMARKS
JONESBORO      FAIR       8   4  83 NW3       30.74R
6HR MIN TEMP:   8; 6HR MAX TEMP:  11; 6HR PCP: TRACE;

NEWPORT        FAIR       7   2  80 NW10      30.76R WCI  -8
6HR MIN TEMP:   7; 6HR MAX TEMP:   9;

WALNUT RIDGE   FAIR       4   1  88 NW7       30.74  WCI  -8
6HR MIN TEMP:   4; 6HR MAX TEMP:   8;

BLYTHEVILLE    FAIR       1  -3  83 NW6       30.73R WCI -10
6HR MIN TEMP:  -1; 6HR MAX TEMP:   3;

$$

ARZ022-023-033-042-044-171300-
CENTRAL ARKANSAS

CITY           SKY/WX    TMP DP  RH WIND       PRES   REMARKS
LITTLE ROCK    PTCLDY     7   2  80 N7        30.77R WCI  -5
6HR MIN TEMP:   7; 6HR MAX TEMP:  10;

N LITTLE ROCK    N/A      7   2  78 CALM      30.81R
6HR MIN TEMP:   7; 6HR MAX TEMP:   9;

JACKSONVILLE   CLEAR      7   1  76 NW5       30.74R WCI  -2
6HR MIN TEMP:   6; 6HR MAX TEMP:  10;

SEARCY         FAIR       7   2  80 N5        30.76R WCI  -2
6HR MIN TEMP:   7; 6HR MAX TEMP:   9;

HOT SPRINGS    CLEAR     11   3  70 CALM      30.73S
6HR MIN TEMP:  10; 6HR MAX TEMP:  15;

RUSSELLVILLE   PTCLDY     7   1  76 CALM      30.75R
6HR MIN TEMP:   6; 6HR MAX TEMP:  11;

CLINTON        FAIR       5   1  85 CALM      30.74S
$$

ARZ036-171300-
EAST ARKANSAS

CITY           SKY/WX    TMP DP  RH WIND       PRES   REMARKS
WEST MEMPHIS   FAIR       4   2  91 CALM      30.73R
6HR MIN TEMP:   4; 6HR MAX TEMP:   9;

$$

ARZ050-053-066-070-073-171300-
SOUTHWEST ARKANSAS

CITY           SKY/WX    TMP DP  RH WIND       PRES   REMARKS
ARKADELPHIA    FAIR       9   4  80 NE6       30.78R WCI  -1
6HR MIN TEMP:   6; 6HR MAX TEMP:  14;

CAMDEN         FAIR       5   0  78 N3        30.77R
TEXARKANA      PTCLDY     8   3  80 CALM      30.75R
6HR MIN TEMP:   7; 6HR MAX TEMP:  13;

EL DORADO      FAIR       7   4  87 CALM      30.76R
6HR MIN TEMP:   6; 6HR MAX TEMP:  12;

DE QUEEN       PTCLDY     8   4  83 CALM      30.75S
6HR MIN TEMP:   7; 6HR MAX TEMP:  11;

$$

ARZ056-057-069-171300-
SOUTHEAST ARKANSAS

CITY           SKY/WX    TMP DP  RH WIND       PRES   REMARKS
PINE BLUFF     FAIR       6   1  80 N7        30.77R WCI  -6
6HR MIN TEMP:   5; 6HR MAX TEMP:  11;

STUTTGART      FAIR       7   2  80 N7        30.76R WCI  -5
6HR MIN TEMP:   6; 6HR MAX TEMP:  10;

MONTICELLO     FAIR       7   2  80 CALM      30.74R
6HR MIN TEMP:   7; 6HR MAX TEMP:  12;


$$






USA.gov is the U.S. government's official web portal to all federal, state and local government web resources and services.